"read_dt","SO2 (ppb)","flags","PMT voltage (V)","lamp voltage (V)","lamp intensity (Hz)","internal temp (C)","react chamber temp (C)","sample flow (l/min)","pres (mmHg)","SO2 bkg (ppb)","SO2 coefficient"
2015-06-03 00:00:00,1815E-3,5C000000,-0724,0828,12177,026.4,045.4,0.478,737.9,01.18,0.508
2015-06-03 00:01:00,1764E-3,5C000000,-0724,0829,12141,026.3,045.4,0.478,738.0,01.18,0.508
2015-06-03 00:02:00,1850E-3,5C000000,-0724,0829,12196,026.4,045.4,0.479,738.0,01.18,0.508
2015-06-03 00:03:00,1838E-3,5C000000,-0724,0829,12225,026.4,045.4,0.479,737.9,01.18,0.508
2015-06-03 00:04:00,1954E-3,5C000000,-0724,0828,12259,026.4,045.4,0.479,737.9,01.18,0.508
2015-06-03 00:05:00,1743E-3,5C000000,-0724,0828,12308,026.4,045.4,0.479,738.0,01.18,0.508
2015-06-03 00:06:00,1674E-3,5C000000,-0724,0829,12266,026.4,045.4,0.479,738.0,01.18,0.508
2015-06-03 00:07:00,1738E-3,5C000000,-0724,0829,12225,026.4,045.4,0.478,737.9,01.18,0.508
2015-06-03 00:08:00,1908E-3,5C000000,-0724,0828,12325,026.4,045.4,0.479,737.8,01.18,0.508
2015-06-03 00:09:00,1732E-3,5C000000,-0724,0829,12256,026.4,045.4,0.479,737.9,01.18,0.508
2015-06-03 00:10:00,1744E-3,5C000000,-0724,0828,12176,026.3,045.4,0.479,737.9,01.18,0.508
2015-06-03 00:11:00,1839E-3,5C000000,-0724,0829,12202,026.4,045.4,0.479,737.9,01.18,0.508
2015-06-03 00:12:00,1701E-3,5C000000,-0724,0829,12166,026.4,045.4,0.478,738.0,01.18,0.508
2015-06-03 00:13:00,1815E-3,5C000000,-0724,0829,12154,026.4,045.4,0.478,737.9,01.18,0.508
2015-06-03 00:14:00,1750E-3,5C000000,-0724,0828,12273,026.4,045.4,0.478,737.9,01.18,0.508
2015-06-03 00:15:00,1784E-3,5C000000,-0724,0829,12182,026.4,045.4,0.479,737.9,01.18,0.508
2015-06-03 00:16:00,1806E-3,5C000000,-0724,0829,12157,026.4,045.4,0.479,737.9,01.18,0.508
2015-06-03 00:17:00,1883E-3,5C000000,-0724,0828,12257,026.4,045.4,0.479,737.9,01.18,0.508
2015-06-03 00:18:00,1777E-3,5C000000,-0724,0829,12194,026.4,045.4,0.479,737.9,01.18,0.508
2015-06-03 00:19:00,1791E-3,5C000000,-0724,0829,12208,026.4,045.4,0.478,737.9,01.18,0.508
2015-06-03 00:20:00,1869E-3,5C000000,-0724,0829,12072,026.4,045.4,0.478,737.8,01.18,0.508
2015-06-03 00:21:00,1778E-3,5C000000,-0724,0828,12283,026.4,045.4,0.478,737.8,01.18,0.508
2015-06-03 00:22:00,1786E-3,5C000000,-0724,0828,12346,026.4,045.4,0.479,737.8,01.18,0.508
2015-06-03 00:23:00,1695E-3,5C000000,-0724,0828,12245,026.4,045.4,0.479,737.8,01.18,0.508
2015-06-03 00:24:00,1690E-3,5C000000,-0724,0828,12218,026.4,045.4,0.479,737.8,01.18,0.508
2015-06-03 00:25:00,1825E-3,5C000000,-0724,0829,12262,026.4,045.4,0.479,737.8,01.18,0.508
2015-06-03 00:26:00,1831E-3,5C000000,-0724,0828,12222,026.4,045.4,0.478,737.7,01.18,0.508
2015-06-03 00:27:00,1827E-3,5C000000,-0724,0827,12346,026.4,045.4,0.478,737.8,01.18,0.508
2015-06-03 00:28:00,1701E-3,5C000000,-0724,0828,12218,026.4,045.4,0.479,737.8,01.18,0.508
2015-06-03 00:29:00,1610E-3,5C000000,-0724,0829,12189,026.5,045.4,0.479,737.8,01.18,0.508
2015-06-03 00:30:00,1747E-3,5C000000,-0724,0829,12189,026.4,045.4,0.479,737.8,01.18,0.508
2015-06-03 00:31:00,1760E-3,5C000000,-0724,0829,12321,026.4,045.4,0.479,737.7,01.18,0.508
2015-06-03 00:32:00,1764E-3,5C000000,-0724,0827,12334,026.5,045.4,0.478,737.8,01.18,0.508
2015-06-03 00:33:00,1770E-3,5C000000,-0724,0828,12378,026.4,045.4,0.478,737.8,01.18,0.508
2015-06-03 00:34:00,1645E-3,5C000000,-0724,0829,12258,026.4,045.4,0.478,737.8,01.18,0.508
2015-06-03 00:35:00,1662E-3,5C000000,-0724,0828,12298,026.4,045.4,0.479,737.8,01.18,0.508
2015-06-03 00:36:00,1706E-3,5C000000,-0724,0828,12219,026.4,045.4,0.479,737.8,01.18,0.508
2015-06-03 00:37:00,1648E-3,5C000000,-0724,0828,12199,026.4,045.4,0.479,737.8,01.18,0.508
2015-06-03 00:38:00,1746E-3,5C000000,-0724,0828,12071,026.4,045.4,0.479,737.9,01.18,0.508
2015-06-03 00:39:00,1675E-3,5C000000,-0724,0829,12414,026.4,045.4,0.478,737.8,01.18,0.508
2015-06-03 00:40:00,1785E-3,5C000000,-0724,0828,12261,026.4,045.4,0.478,737.9,01.18,0.508
2015-06-03 00:41:00,1725E-3,5C000000,-0724,0829,12339,026.4,045.4,0.479,737.9,01.18,0.508
2015-06-03 00:42:00,1782E-3,5C000000,-0724,0828,12214,026.4,045.4,0.479,737.9,01.18,0.508
2015-06-03 00:43:00,1664E-3,5C000000,-0724,0829,12131,026.4,045.4,0.479,737.9,01.18,0.508
2015-06-03 00:44:00,1775E-3,5C000000,-0724,0829,12171,026.4,045.4,0.479,737.9,01.18,0.508
2015-06-03 00:45:00,1840E-3,5C000000,-0724,0829,12036,026.4,045.4,0.478,737.9,01.18,0.508
2015-06-03 00:46:00,1721E-3,5C000000,-0724,0829,12258,026.4,045.4,0.478,737.9,01.18,0.508
2015-06-03 00:47:00,1832E-3,5C000000,-0724,0828,12198,026.4,045.4,0.479,737.9,01.18,0.508
2015-06-03 00:48:00,1716E-3,5C000000,-0724,0829,12218,026.4,045.4,0.479,737.9,01.18,0.508
2015-06-03 00:49:00,1736E-3,5C000000,-0724,0828,12102,026.4,045.4,0.479,737.9,01.18,0.508
2015-06-03 00:50:00,1751E-3,5C000000,-0724,0829,12223,026.4,045.4,0.479,737.9,01.18,0.508
2015-06-03 00:51:00,1761E-3,5C000000,-0724,0829,12114,026.4,045.4,0.478,737.9,01.18,0.508
2015-06-03 00:52:00,1766E-3,5C000000,-0724,0828,12190,026.4,045.4,0.478,737.9,01.18,0.508
2015-06-03 00:53:00,1580E-3,5C000000,-0724,0829,12147,026.4,045.4,0.478,737.9,01.18,0.508
2015-06-03 00:54:00,1766E-3,5C000000,-0724,0829,12261,026.4,045.4,0.479,737.9,01.18,0.508
2015-06-03 00:55:00,1849E-3,5C000000,-0724,0829,12289,026.4,045.4,0.479,737.8,01.18,0.508
2015-06-03 00:56:00,1731E-3,5C000000,-0724,0829,12192,026.4,045.4,0.479,737.9,01.18,0.508
2015-06-03 00:57:00,1951E-3,5C000000,-0724,0829,12110,026.4,045.4,0.478,737.8,01.18,0.508
2015-06-03 00:58:00,1979E-3,5C000000,-0724,0828,12120,026.4,045.4,0.478,737.8,01.18,0.508
2015-06-03 00:59:00,1797E-3,5C000000,-0724,0829,12230,026.4,045.4,0.479,737.9,01.18,0.508
2015-06-03 01:00:00,1761E-3,5C000000,-0724,0828,12183,026.4,045.4,0.479,737.9,01.18,0.508
2015-06-03 01:01:00,1850E-3,5C000000,-0724,0829,12309,026.4,045.4,0.479,737.9,01.18,0.508
2015-06-03 01:02:00,1878E-3,5C000000,-0724,0828,12310,026.4,045.4,0.479,737.9,01.18,0.508
2015-06-03 01:03:00,1611E-3,5C000000,-0724,0827,12175,026.5,045.4,0.479,738.0,01.18,0.508
2015-06-03 01:04:00,1782E-3,5C000000,-0724,0828,12351,026.4,045.4,0.478,737.9,01.18,0.508
2015-06-03 01:05:00,1742E-3,5C000000,-0724,0828,12181,026.4,045.4,0.478,737.8,01.18,0.508
2015-06-03 01:06:00,1984E-3,5C000000,-0724,0827,12230,026.4,045.4,0.479,737.9,01.18,0.508
2015-06-03 01:07:00,1899E-3,5C000000,-0724,0827,12191,026.4,045.4,0.479,738.0,01.18,0.508
2015-06-03 01:08:00,1739E-3,5C000000,-0724,0829,12179,026.4,045.4,0.479,737.9,01.18,0.508
2015-06-03 01:09:00,1899E-3,5C000000,-0724,0829,12273,026.4,045.4,0.478,738.0,01.18,0.508
2015-06-03 01:10:00,1847E-3,5C000000,-0724,0828,12036,026.5,045.4,0.478,738.0,01.18,0.508
2015-06-03 01:11:00,1691E-3,5C000000,-0724,0828,12254,026.5,045.4,0.479,737.9,01.18,0.508
2015-06-03 01:12:00,1691E-3,5C000000,-0724,0829,12248,026.4,045.4,0.479,737.9,01.18,0.508
2015-06-03 01:13:00,1737E-3,5C000000,-0724,0828,12183,026.4,045.4,0.479,737.9,01.18,0.508
2015-06-03 01:14:00,1710E-3,5C000000,-0724,0828,12075,026.4,045.4,0.479,737.9,01.18,0.508
2015-06-03 01:15:00,1658E-3,5C000000,-0724,0827,12274,026.5,045.4,0.478,737.9,01.18,0.508
2015-06-03 01:16:00,1782E-3,5C000000,-0724,0828,12259,026.4,045.4,0.479,737.9,01.18,0.508
2015-06-03 01:17:00,1805E-3,5C000000,-0724,0827,12249,026.5,045.4,0.479,737.9,01.18,0.508
2015-06-03 01:18:00,1739E-3,5C000000,-0724,0828,12141,026.5,045.4,0.479,737.8,01.18,0.508
2015-06-03 01:19:00,1841E-3,5C000000,-0724,0828,12190,026.5,045.4,0.479,737.8,01.18,0.508
2015-06-03 01:20:00,1746E-3,5C000000,-0724,0828,12126,026.5,045.4,0.478,737.8,01.18,0.508
2015-06-03 01:21:00,1686E-3,5C000000,-0724,0829,12200,026.5,045.4,0.478,737.8,01.18,0.508
2015-06-03 01:22:00,1730E-3,5C000000,-0724,0828,12283,026.5,045.4,0.479,737.8,01.18,0.508
2015-06-03 01:23:00,1697E-3,5C000000,-0724,0828,12095,026.5,045.4,0.479,737.8,01.18,0.508
2015-06-03 01:24:00,1670E-3,5C000000,-0724,0829,12261,026.5,045.4,0.479,737.8,01.18,0.508
2015-06-03 01:25:00,1862E-3,5C000000,-0724,0827,12284,026.5,045.4,0.478,737.8,01.18,0.508
2015-06-03 01:26:00,1759E-3,5C000000,-0724,0829,12303,026.5,045.4,0.478,737.8,01.18,0.508
2015-06-03 01:27:00,1829E-3,5C000000,-0724,0828,12236,026.5,045.4,0.479,737.8,01.18,0.508
2015-06-03 01:28:00,1900E-3,5C000000,-0724,0829,12203,026.5,045.4,0.479,737.8,01.18,0.508
2015-06-03 01:29:00,1803E-3,5C000000,-0724,0828,12125,026.5,045.4,0.479,737.8,01.18,0.508
2015-06-03 01:30:00,1774E-3,5C000000,-0724,0828,12241,026.5,045.4,0.478,737.8,01.18,0.508
2015-06-03 01:31:00,1791E-3,5C000000,-0724,0828,12282,026.5,045.4,0.478,737.8,01.18,0.508
2015-06-03 01:32:00,1807E-3,5C000000,-0724,0828,12311,026.5,045.4,0.478,737.8,01.18,0.508
2015-06-03 01:33:00,1790E-3,5C000000,-0724,0829,12306,026.5,045.4,0.479,737.8,01.18,0.508
2015-06-03 01:34:00,1711E-3,5C000000,-0724,0829,12165,026.5,045.4,0.479,737.8,01.18,0.508
2015-06-03 01:35:00,1629E-3,5C000000,-0724,0827,12040,026.5,045.4,0.479,737.8,01.18,0.508
2015-06-03 01:36:00,1790E-3,5C000000,-0724,0828,12173,026.5,045.4,0.478,737.8,01.18,0.508
2015-06-03 01:37:00,1817E-3,5C000000,-0724,0829,12374,026.5,045.4,0.478,737.8,01.18,0.508
2015-06-03 01:38:00,1688E-3,5C000000,-0724,0827,12059,026.5,045.4,0.479,737.8,01.18,0.508
2015-06-03 01:39:00,1768E-3,5C000000,-0724,0828,12106,026.5,045.4,0.479,737.8,01.18,0.508
2015-06-03 01:40:00,1807E-3,5C000000,-0724,0829,12230,026.5,045.4,0.479,737.8,01.18,0.508
2015-06-03 01:41:00,1727E-3,5C000000,-0724,0828,12104,026.5,045.4,0.478,737.8,01.18,0.508
2015-06-03 01:42:00,1796E-3,5C000000,-0724,0828,12347,026.6,045.4,0.478,737.8,01.18,0.508
2015-06-03 01:43:00,1768E-3,5C000000,-0724,0828,12124,026.5,045.4,0.479,737.8,01.18,0.508
2015-06-03 01:44:00,1763E-3,5C000000,-0724,0828,12250,026.6,045.4,0.479,737.8,01.18,0.508
2015-06-03 01:45:00,1743E-3,5C000000,-0724,0828,12333,026.6,045.4,0.479,737.8,01.18,0.508
2015-06-03 01:46:00,1804E-3,5C000000,-0724,0829,12263,026.6,045.4,0.478,737.8,01.18,0.508
2015-06-03 01:47:00,1760E-3,5C000000,-0724,0828,12025,026.6,045.4,0.478,737.7,01.18,0.508
2015-06-03 01:48:00,1923E-3,5C000000,-0724,0828,12219,026.6,045.4,0.479,737.8,01.18,0.508
2015-06-03 01:49:00,1796E-3,5C000000,-0724,0828,12184,026.6,045.4,0.479,737.8,01.18,0.508
2015-06-03 01:50:00,1904E-3,5C000000,-0724,0828,12150,026.6,045.4,0.479,737.8,01.18,0.508
2015-06-03 01:51:00,1706E-3,5C000000,-0724,0828,12243,026.6,045.4,0.478,737.8,01.18,0.508
2015-06-03 01:52:00,1773E-3,5C000000,-0724,0828,12156,026.6,045.4,0.478,737.8,01.18,0.508
2015-06-03 01:53:00,1744E-3,5C000000,-0724,0828,12297,026.6,045.4,0.478,737.8,01.18,0.508
2015-06-03 01:54:00,1886E-3,5C000000,-0724,0828,12301,026.6,045.4,0.479,737.8,01.18,0.508
2015-06-03 01:55:00,1710E-3,5C000000,-0724,0829,12176,026.6,045.4,0.478,737.9,01.18,0.508
2015-06-03 01:56:00,1921E-3,5C000000,-0724,0828,12297,026.6,045.4,0.478,737.9,01.18,0.508
2015-06-03 01:57:00,1737E-3,5C000000,-0724,0827,12168,026.6,045.4,0.478,737.9,01.18,0.508
2015-06-03 01:58:00,1780E-3,5C000000,-0724,0829,12249,026.6,045.4,0.479,737.9,01.18,0.508
2015-06-03 01:59:00,1844E-3,5C000000,-0724,0828,12208,026.6,045.4,0.479,737.9,01.18,0.508
2015-06-03 02:00:00,1777E-3,5C000000,-0724,0828,12349,026.6,045.4,0.479,737.9,01.18,0.508
2015-06-03 02:01:00,1807E-3,5C000000,-0724,0828,12253,026.6,045.4,0.478,737.9,01.18,0.508
2015-06-03 02:02:00,1874E-3,5C000000,-0724,0828,12149,026.6,045.4,0.478,737.9,01.18,0.508
2015-06-03 02:03:00,1835E-3,5C000000,-0724,0828,12323,026.6,045.4,0.478,737.8,01.18,0.508
2015-06-03 02:04:00,1742E-3,5C000000,-0724,0829,12103,026.6,045.4,0.479,737.9,01.18,0.508
2015-06-03 02:05:00,1773E-3,5C000000,-0724,0829,12286,026.6,045.4,0.479,737.8,01.18,0.508
2015-06-03 02:06:00,1899E-3,5C000000,-0724,0829,12277,026.6,045.4,0.479,737.8,01.18,0.508
2015-06-03 02:07:00,1866E-3,5C000000,-0724,0829,12268,026.6,045.4,0.478,737.9,01.18,0.508
2015-06-03 02:08:00,1732E-3,5C000000,-0724,0829,12259,026.6,045.4,0.478,737.9,01.18,0.508
2015-06-03 02:09:00,1852E-3,5C000000,-0724,0828,12254,026.6,045.4,0.478,737.8,01.18,0.508
2015-06-03 02:10:00,1764E-3,5C000000,-0724,0829,12226,026.6,045.4,0.479,737.9,01.18,0.508
2015-06-03 02:11:00,1931E-3,5C000000,-0724,0828,12126,026.6,045.4,0.479,737.8,01.18,0.508
2015-06-03 02:12:00,1866E-3,5C000000,-0724,0829,12187,026.6,045.4,0.478,737.8,01.18,0.508
2015-06-03 02:13:00,1796E-3,5C000000,-0724,0829,12170,026.6,045.4,0.478,737.8,01.18,0.508
2015-06-03 02:14:00,1872E-3,5C000000,-0724,0829,12241,026.6,045.4,0.478,737.8,01.18,0.508
2015-06-03 02:15:00,1752E-3,5C000000,-0724,0828,12164,026.6,045.4,0.479,737.8,01.18,0.508
2015-06-03 02:16:00,1780E-3,5C000000,-0724,0828,12299,026.6,045.4,0.479,737.8,01.18,0.508
2015-06-03 02:17:00,1789E-3,5C000000,-0724,0828,12218,026.6,045.4,0.478,737.8,01.18,0.508
2015-06-03 02:18:00,1763E-3,5C000000,-0724,0829,12241,026.7,045.4,0.478,737.8,01.18,0.508
2015-06-03 02:19:00,1841E-3,5C000000,-0724,0827,12249,026.6,045.4,0.478,737.8,01.18,0.508
2015-06-03 02:20:00,1748E-3,5C000000,-0724,0827,12225,026.6,045.4,0.478,737.8,01.18,0.508
2015-06-03 02:21:00,1884E-3,5C000000,-0724,0828,12201,026.6,045.4,0.479,737.8,01.18,0.508
2015-06-03 02:22:00,1722E-3,5C000000,-0724,0828,12218,026.7,045.4,0.479,737.8,01.18,0.508
2015-06-03 02:23:00,1885E-3,5C000000,-0724,0829,12243,026.7,045.4,0.478,737.8,01.18,0.508
2015-06-03 02:24:00,1717E-3,5C000000,-0724,0828,12235,026.7,045.4,0.478,737.8,01.18,0.508
2015-06-03 02:25:00,1862E-3,5C000000,-0724,0828,12341,026.7,045.4,0.478,737.7,01.18,0.508
2015-06-03 02:26:00,1725E-3,5C000000,-0724,0829,12314,026.7,045.4,0.479,737.7,01.18,0.508
2015-06-03 02:27:00,1775E-3,5C000000,-0724,0828,12286,026.7,045.4,0.479,737.7,01.18,0.508
2015-06-03 02:28:00,1878E-3,5C000000,-0724,0828,12287,026.7,045.4,0.478,737.8,01.18,0.508
2015-06-03 02:29:00,1728E-3,5C000000,-0724,0828,12167,026.7,045.4,0.478,737.7,01.18,0.508
2015-06-03 02:30:00,1843E-3,5C000000,-0724,0828,12112,026.7,045.4,0.478,737.8,01.18,0.508
2015-06-03 02:31:00,1764E-3,5C000000,-0724,0828,12231,026.7,045.4,0.478,737.8,01.18,0.508
2015-06-03 02:32:00,1821E-3,5C000000,-0724,0829,12039,026.7,045.4,0.479,737.8,01.18,0.508
2015-06-03 02:33:00,1763E-3,5C000000,-0724,0829,12214,026.7,045.4,0.478,737.8,01.18,0.508
2015-06-03 02:34:00,1760E-3,5C000000,-0724,0829,12267,026.7,045.4,0.478,737.8,01.18,0.508
2015-06-03 02:35:00,1891E-3,5C000000,-0724,0828,12206,026.7,045.4,0.478,737.8,01.18,0.508
2015-06-03 02:36:00,1772E-3,5C000000,-0724,0828,12042,026.7,045.4,0.478,737.8,01.18,0.508
2015-06-03 02:37:00,1811E-3,5C000000,-0724,0828,12232,026.7,045.4,0.479,737.8,01.18,0.508
2015-06-03 02:38:00,1815E-3,5C000000,-0724,0828,12307,026.7,045.4,0.478,737.8,01.18,0.508
2015-06-03 02:39:00,1700E-3,5C000000,-0724,0828,12126,026.7,045.4,0.478,737.8,01.18,0.508
2015-06-03 02:40:00,1624E-3,5C000000,-0724,0827,12139,026.7,045.4,0.478,737.8,01.18,0.508
2015-06-03 02:41:00,1711E-3,5C000000,-0724,0828,12294,026.7,045.4,0.478,737.8,01.18,0.508
2015-06-03 02:42:00,1833E-3,5C000000,-0724,0828,12272,026.7,045.4,0.479,737.7,01.18,0.508
2015-06-03 02:43:00,1822E-3,5C000000,-0724,0828,12031,026.7,045.4,0.478,737.8,01.18,0.508
2015-06-03 02:44:00,1822E-3,5C000000,-0724,0828,12093,026.7,045.4,0.478,737.8,01.18,0.508
2015-06-03 02:45:00,1684E-3,5C000000,-0724,0828,12252,026.8,045.4,0.478,737.8,01.18,0.508
2015-06-03 02:46:00,1764E-3,5C000000,-0724,0828,12308,026.8,045.4,0.478,737.7,01.18,0.508
2015-06-03 02:47:00,1783E-3,5C000000,-0724,0828,12142,026.8,045.4,0.479,737.8,01.18,0.508
2015-06-03 02:48:00,1839E-3,5C000000,-0724,0829,12274,026.8,045.4,0.478,737.7,01.18,0.508
2015-06-03 02:49:00,1697E-3,5C000000,-0724,0827,12294,026.8,045.4,0.478,737.7,01.18,0.508
2015-06-03 02:50:00,1677E-3,5C000000,-0724,0828,12304,026.8,045.4,0.478,737.8,01.18,0.508
2015-06-03 02:51:00,1819E-3,5C000000,-0724,0828,12212,026.8,045.4,0.478,737.8,01.18,0.508
2015-06-03 02:52:00,1667E-3,5C000000,-0724,0827,12062,026.8,045.4,0.478,737.7,01.18,0.508
2015-06-03 02:53:00,1915E-3,5C000000,-0724,0829,12098,026.8,045.4,0.478,737.7,01.18,0.508
2015-06-03 02:54:00,1619E-3,5C000000,-0724,0828,12108,026.8,045.4,0.478,737.7,01.18,0.508
2015-06-03 02:55:00,1723E-3,5C000000,-0724,0828,12112,026.8,045.4,0.478,737.7,01.18,0.508
2015-06-03 02:56:00,1836E-3,5C000000,-0724,0828,12160,026.8,045.4,0.478,737.7,01.18,0.508
2015-06-03 02:57:00,1812E-3,5C000000,-0724,0828,12264,026.8,045.4,0.478,737.7,01.18,0.508
2015-06-03 02:58:00,1643E-3,5C000000,-0724,0829,12369,026.8,045.4,0.478,737.7,01.18,0.508
2015-06-03 02:59:00,1665E-3,5C000000,-0724,0828,12255,026.8,045.4,0.478,737.7,01.18,0.508
2015-06-03 03:00:00,1798E-3,5C000000,-0724,0829,12214,026.8,045.4,0.478,737.7,01.18,0.508
2015-06-03 03:01:00,1703E-3,5C000000,-0724,0828,12354,026.8,045.4,0.478,737.8,01.18,0.508
2015-06-03 03:02:00,1694E-3,5C000000,-0724,0828,12295,026.8,045.4,0.478,737.7,01.18,0.508
2015-06-03 03:03:00,1789E-3,5C000000,-0724,0828,12130,026.8,045.4,0.478,737.7,01.18,0.508
2015-06-03 03:04:00,1753E-3,5C000000,-0724,0828,12239,026.8,045.4,0.478,737.7,01.18,0.508
2015-06-03 03:05:00,1704E-3,5C000000,-0724,0828,12287,026.8,045.4,0.478,737.7,01.18,0.508
2015-06-03 03:06:00,1815E-3,5C000000,-0724,0827,12217,026.8,045.4,0.478,737.7,01.18,0.508
2015-06-03 03:07:00,1901E-3,5C000000,-0724,0830,12137,026.8,045.4,0.478,737.7,01.18,0.508
2015-06-03 03:08:00,1787E-3,5C000000,-0724,0828,12209,026.8,045.4,0.478,737.7,01.18,0.508
2015-06-03 03:09:00,1866E-3,5C000000,-0724,0827,12170,026.9,045.4,0.478,737.7,01.18,0.508
2015-06-03 03:10:00,2104E-3,5C000000,-0724,0829,12289,026.9,045.4,0.478,737.7,01.18,0.508
2015-06-03 03:11:00,2084E-3,5C000000,-0724,0829,12313,026.8,045.4,0.478,737.7,01.18,0.508
2015-06-03 03:12:00,1976E-3,5C000000,-0724,0828,12150,026.8,045.4,0.478,737.7,01.18,0.508
2015-06-03 03:13:00,1914E-3,5C000000,-0724,0827,12177,026.9,045.4,0.478,737.6,01.18,0.508
2015-06-03 03:14:00,1761E-3,5C000000,-0724,0828,12237,026.9,045.4,0.478,737.6,01.18,0.508
2015-06-03 03:15:00,2041E-3,5C000000,-0724,0827,12258,026.9,045.4,0.478,737.6,01.18,0.508
2015-06-03 03:16:00,2090E-3,5C000000,-0724,0828,12320,026.9,045.4,0.478,737.6,01.18,0.508
2015-06-03 03:17:00,2173E-3,5C000000,-0724,0827,12156,026.9,045.4,0.478,737.6,01.18,0.508
2015-06-03 03:18:00,2193E-3,5C000000,-0724,0828,12129,026.9,045.4,0.478,737.6,01.18,0.508
2015-06-03 03:19:00,1985E-3,5C000000,-0724,0828,12279,026.9,045.4,0.478,737.7,01.18,0.508
2015-06-03 03:20:00,1994E-3,5C000000,-0724,0828,12406,026.9,045.4,0.478,737.7,01.18,0.508
2015-06-03 03:21:00,2089E-3,5C000000,-0724,0827,12140,026.9,045.4,0.478,737.7,01.18,0.508
2015-06-03 03:22:00,1933E-3,5C000000,-0724,0828,12250,026.9,045.4,0.478,737.7,01.18,0.508
2015-06-03 03:23:00,1960E-3,5C000000,-0724,0827,12148,026.9,045.4,0.478,737.6,01.18,0.508
2015-06-03 03:24:00,1939E-3,5C000000,-0724,0829,12007,026.9,045.4,0.478,737.7,01.18,0.508
2015-06-03 03:25:00,1892E-3,5C000000,-0724,0828,12214,026.9,045.4,0.478,737.7,01.18,0.508
2015-06-03 03:26:00,1924E-3,5C000000,-0724,0828,12148,026.9,045.4,0.478,737.7,01.18,0.508
2015-06-03 03:27:00,2043E-3,5C000000,-0724,0829,12053,026.9,045.4,0.478,737.7,01.18,0.508
2015-06-03 03:28:00,2111E-3,5C000000,-0724,0827,12189,026.9,045.4,0.478,737.7,01.18,0.508
2015-06-03 03:29:00,2197E-3,5C000000,-0724,0828,12234,026.9,045.4,0.478,737.7,01.18,0.508
2015-06-03 03:30:00,2411E-3,5C000000,-0724,0828,12389,026.9,045.4,0.478,737.7,01.18,0.508
2015-06-03 03:31:00,2202E-3,5C000000,-0724,0828,12360,026.9,045.4,0.478,737.7,01.18,0.508
2015-06-03 03:32:00,2309E-3,5C000000,-0724,0827,12181,026.9,045.4,0.478,737.7,01.18,0.508
2015-06-03 03:33:00,2194E-3,5C000000,-0724,0827,12288,026.9,045.4,0.478,737.7,01.18,0.508
2015-06-03 03:34:00,2390E-3,5C000000,-0724,0829,12288,027.0,045.4,0.478,737.8,01.18,0.508
2015-06-03 03:35:00,2387E-3,5C000000,-0724,0829,12083,026.9,045.4,0.478,737.7,01.18,0.508
2015-06-03 03:36:00,2418E-3,5C000000,-0724,0828,12274,026.9,045.4,0.478,737.8,01.18,0.508
2015-06-03 03:37:00,2291E-3,5C000000,-0724,0828,12157,026.9,045.4,0.478,737.8,01.18,0.508
2015-06-03 03:38:00,2281E-3,5C000000,-0724,0828,12121,026.9,045.4,0.478,737.8,01.18,0.508
2015-06-03 03:39:00,2186E-3,5C000000,-0724,0828,12198,027.0,045.4,0.478,737.8,01.18,0.508
2015-06-03 03:40:00,1826E-3,5C000000,-0724,0828,12233,026.9,045.4,0.478,737.8,01.18,0.508
2015-06-03 03:41:00,2120E-3,5C000000,-0724,0829,12253,027.0,045.4,0.478,737.7,01.18,0.508
2015-06-03 03:42:00,2000E-3,5C000000,-0724,0829,12183,027.0,045.4,0.478,737.7,01.18,0.508
2015-06-03 03:43:00,2092E-3,5C000000,-0724,0829,12154,027.0,045.4,0.478,737.7,01.18,0.508
2015-06-03 03:44:00,2413E-3,5C000000,-0724,0828,12173,027.0,045.4,0.478,737.8,01.18,0.508
2015-06-03 03:45:00,2433E-3,5C000000,-0724,0829,12277,027.0,045.4,0.478,737.7,01.18,0.508
2015-06-03 03:46:00,2307E-3,5C000000,-0724,0828,12061,027.0,045.4,0.478,737.7,01.18,0.508
2015-06-03 03:47:00,2041E-3,5C000000,-0724,0828,12476,027.0,045.4,0.478,737.7,01.18,0.508
2015-06-03 03:48:00,2820E-3,5C000000,-0724,0829,12176,027.0,045.4,0.478,737.7,01.18,0.508
2015-06-03 03:49:00,2436E-3,5C000000,-0724,0829,12297,027.0,045.4,0.478,737.7,01.18,0.508
2015-06-03 03:50:00,2222E-3,5C000000,-0724,0828,12194,027.0,045.4,0.478,737.8,01.18,0.508
2015-06-03 03:51:00,2108E-3,5C000000,-0724,0829,12190,027.0,045.4,0.478,737.7,01.18,0.508
2015-06-03 03:52:00,2268E-3,5C000000,-0724,0828,12129,027.0,045.4,0.478,737.8,01.18,0.508
2015-06-03 03:53:00,2211E-3,5C000000,-0724,0828,12159,027.0,045.4,0.478,737.7,01.18,0.508
2015-06-03 03:54:00,2384E-3,5C000000,-0724,0829,12223,027.0,045.4,0.478,737.7,01.18,0.508
2015-06-03 03:55:00,2430E-3,5C000000,-0724,0828,12265,027.0,045.4,0.478,737.7,01.18,0.508
2015-06-03 03:56:00,2243E-3,5C000000,-0724,0828,12206,027.0,045.4,0.478,737.7,01.18,0.508
2015-06-03 03:57:00,1972E-3,5C000000,-0724,0829,12121,027.0,045.4,0.478,737.7,01.18,0.508
2015-06-03 03:58:00,2096E-3,5C000000,-0724,0829,12223,027.0,045.4,0.478,737.7,01.18,0.508
2015-06-03 03:59:00,2236E-3,5C000000,-0724,0828,12106,027.0,045.4,0.478,737.7,01.18,0.508
2015-06-03 04:00:00,2456E-3,5C000000,-0724,0828,12303,027.0,045.4,0.478,737.7,01.18,0.508
2015-06-03 04:01:00,2298E-3,5C000000,-0724,0828,12294,027.0,045.4,0.478,737.7,01.18,0.508
2015-06-03 04:02:00,2772E-3,5C000000,-0724,0827,12190,027.0,045.4,0.478,737.7,01.18,0.508
2015-06-03 04:03:00,2758E-3,5C000000,-0724,0827,12106,027.0,045.4,0.478,737.7,01.18,0.508
2015-06-03 04:04:00,2507E-3,5C000000,-0724,0828,11929,027.0,045.4,0.478,737.7,01.18,0.508
2015-06-03 04:05:00,2623E-3,5C000000,-0724,0829,12180,027.0,045.4,0.478,737.7,01.18,0.508
2015-06-03 04:06:00,2562E-3,5C000000,-0724,0828,12388,027.0,045.4,0.478,737.7,01.18,0.508
2015-06-03 04:07:00,2414E-3,5C000000,-0724,0828,12156,027.0,045.4,0.478,737.7,01.18,0.508
2015-06-03 04:08:00,2744E-3,5C000000,-0724,0828,12228,027.0,045.4,0.478,737.6,01.18,0.508
2015-06-03 04:09:00,2466E-3,5C000000,-0724,0829,12245,027.1,045.4,0.478,737.7,01.18,0.508
2015-06-03 04:10:00,2258E-3,5C000000,-0724,0829,12236,027.0,045.4,0.478,737.7,01.18,0.508
2015-06-03 04:11:00,2455E-3,5C000000,-0724,0829,12189,027.0,045.4,0.478,737.7,01.18,0.508
2015-06-03 04:12:00,2169E-3,5C000000,-0724,0828,12240,027.1,045.4,0.478,737.7,01.18,0.508
2015-06-03 04:13:00,2547E-3,5C000000,-0724,0828,12300,027.0,045.4,0.478,737.6,01.18,0.508
2015-06-03 04:14:00,2640E-3,5C000000,-0724,0829,12178,027.1,045.4,0.478,737.6,01.18,0.508
2015-06-03 04:15:00,2409E-3,5C000000,-0724,0829,12260,027.1,045.4,0.478,737.7,01.18,0.508
2015-06-03 04:16:00,2262E-3,5C000000,-0724,0828,12149,027.1,045.4,0.478,737.6,01.18,0.508
2015-06-03 04:17:00,2653E-3,5C000000,-0724,0828,12045,027.1,045.4,0.478,737.6,01.18,0.508
2015-06-03 04:18:00,2619E-3,5C000000,-0724,0829,12367,027.1,045.4,0.477,737.6,01.18,0.508
2015-06-03 04:19:00,2640E-3,5C000000,-0724,0828,12171,027.1,045.4,0.478,737.6,01.18,0.508
2015-06-03 04:20:00,2732E-3,5C000000,-0724,0828,12214,027.1,045.4,0.478,737.6,01.18,0.508